Location: Newark
(45.8667°N, 9.7333°E)
Time: 00:56:34
(UTC+00:00)

Vanguard 3 - Pass Details

Date: 30 January 2020
Orbit: 508 x 3263 km, 33.3° (Epoch: 20 February)

Event Time Altitude Azimuth Distance (km) Brightness Sun altitude
Rises 11:55:28 0° 174° (S) 5,871 12.8 26.2°
Reaches altitude 10° 12:02:37 10° 150° (SSE) 5,446 12.3 26.1°
Maximum altitude 12:09:03 13° 127° (SE) 5,550 11.9 25.9°
Drops below altitude 10° 12:16:06 10° 105° (ESE) 6,104 11.7 25.7°
Sets 12:25:12 0° 84° (E) 7,231 11.8 25.4°
